Flag for Japan Weather past 2 weeks in Hamamatsu, Japan

Now
54 °F

Cool.


Feels Like: 51 °F
Forecast: 54 / 57 °F
Wind: 14 mph from East

Location: Omaezaki


UV Index: 5 (Moderate)

Visibility: 13 mi


Pressure: 30.16 "Hg

Humidity: 76%

Dew point: 47 °F

Location of HamamatsuLocation

Historic Weather in Hamamatsu

°F

Hamamatsu temperature yesterday

Maximum temperature yesterday: 62 °F (at 12:00 AM)
Minimum temperature yesterday: 55 °F (at 5:00 PM)
Average temperature yesterday: 58 °F

Past Weeks' High & Low Weather Summary

 TemperatureHumidityPressure
High68 °F (Apr 10, 4:00 PM)100% (Apr 18, 2:00 PM)30.15 "Hg (Apr 18, 2:00 PM)
Low42 °F (Apr 7, 6:00 AM)29% (Apr 6, 5:00 PM)29.62 "Hg (Apr 4, 10:00 PM)
Average56 °F64%29.95 "Hg
* Reported Apr 4 10:00 PM — Apr 19 10:00 PM, Hamamatsu, Weather by CustomWeather, © 2014

Note: Actual official high and low records may vary slightly from our data, if they occured in-between our weather recording intervals... More about our weather records

Advertising

Historic Weather Conditions — Data for Previous 24 hours

 ConditionsComfort  
Time TempWeatherWind HumidityBarometerVisibility
10:00 PM
Apr 19
55 °FCool.14 mph73%30.15 "Hg12 mi
9:00 PM56 °FCool.13 mph74%30.14 "Hg12 mi
8:00 PM57 °FCool.12 mph67%30.10 "Hg12 mi
7:00 PM57 °FCool.12 mph61%30.09 "Hg12 mi
6:00 PM57 °FCool.12 mph64%30.07 "Hg12 mi
5:00 PM58 °FCool.10 mph61%30.06 "Hg12 mi
4:00 PM58 °FRefreshingly cool.10 mph52%30.04 "Hg12 mi
3:00 PM59 °FRefreshingly cool.12 mph46%30.03 "Hg12 mi
2:00 PM60 °FRefreshingly cool.12 mph52%30.02 "Hg12 mi
1:00 PM59 °FRefreshingly cool.12 mph57%30.01 "Hg11 mi
12:00 PM58 °FCool.10 mph68%30.01 "Hg11 mi
11:00 AM57 °FCool.6 mph80%30.02 "Hg10 mi
10:00 AM57 °FLight rain. Cloudy.5 mph87%30.03 "Hg7 mi
9:00 AM57 °FCool.3 mph87%30.02 "Hg9 mi
8:00 AM57 °FCool.3 mph89%30.00 "Hg9 mi
7:00 AM56 °FCool.5 mph92%29.99 "Hg6 mi
5:00 AM56 °FLight rain. Cloudy.1 mph93%29.93 "Hg4 mi
4:00 AM56 °FCool.3 mph91%29.92 "Hg6 mi
3:00 AM55 °FFog.3 mph91%29.92 "Hg6 mi
2:00 AM55 °FCool.7 mph90%29.91 "Hg6 mi
1:00 AM55 °FCool.9 mph87%29.91 "Hg8 mi
12:00 AM56 °FCool.9 mph85%29.91 "Hg11 mi
11:00 PM
Apr 18
56 °FCool.8 mph84%29.92 "Hg10 mi
Weather by CustomWeather, © 2014

See weather overview